Lid_Strength_Index
3 3 3 3 3 3 3 3 2 3 3 4 5 5 6 5 5 6 4 2 5 7 6 5 5 6 5 6 8 6 7 6 8 9 9 9 9 8 9 8 9 10 13 13 12 15 17 6 6 11 8 5 5 5
3 3 3 3 3 3 3 3 3 3 3 4 5 6 6 6 5 6 4 2 2 6 6 4 4 4 5 5 6 5 6 6 6 8 7 7 9 8 9 14 6 12 9 12 10 10 6 5 6 4 4 5 5 6
2 3 3 3 3 3 3 3 3 3 4 5 5 5 6 5 5 6 5 3 4 6 6 6 6 3 3 4 3 7 6 4 4 3 7 8 9 7 12 10 9 7 6 9 9 7 6 5 4 4 4 5 4 4
4 4 4 4 4 4 3 3 3 4 4 5 5 6 6 5 5 6 5 3 4 6 9 7 3 5 3 3 4 4 4 3 4 5 7 7 9 5 8 8 9 7 6 7 8 6 6 5 5 4 4 4 4 4
4 4 4 4 4 4 3 4 4 5 5 5 5 6 6 6 5 5 4 3 3 6 9 8 5 4 3 3 4 3 4 4 6 7 7 8 6 6 6 6 8 6 7 10 11 6 6 6 4 4 4 5 4 5
4 4 4 4 4 5 4 5 5 5 5 5 5 5 6 6 6 5 6 3 2 3 7 9 5 4 3 3 4 4 4 4 5 6 7 6 4 6 9 10 6 4 4 5 7 4 4 4 4 4 5 4 4 4
4 4 4 5 5 5 5 5 5 5 5 5 6 6 6 6 6 6 6 5 5 4 7 9 8 4 4 4 4 4 3 4 5 5 6 6 5 5 7 11 6 5 4 4 3 4 5 4 5 4 4 4 4 5
4 5 5 5 5 5 5 5 5 5 5 6 6 6 6 5 5 6 4 5 5 6 6 9 8 6 4 6 6 3 4 4 5 5 5 6 5 6 9 6 5 5 4 4 4 3 4 4 3 4 4 4 7 9
4 4 4 5 5 5 5 5 6 6 6 6 6 6 5 6 6 5 4 4 3 5 8 7 9 9 4 5 5 4 4 7 4 7 6 6 7 9 6 6 5 5 5 5 4 3 4 4 4 4 5 7 9 10
4 4 4 4 5 5 5 5 5 6 6 5 6 6 7 4 3 3 4 6 7 6 6 9 7 9 6 6 6 6 5 7 8 6 4 7 8 5 4 5 4 5 4 4 5 6 5 5 5 6 7 9 9 9
5 4 4 4 4 4 5 5 5 5 5 6 6 6 3 3 4 6 9 9 9 10 8 7 7 7 4 7 7 4 6 6 9 7 8 9 9 6 4 4 3 3 3 3 3 3 3 5 6 7 9 9 8 10
5 5 4 4 4 5 5 5 5 5 5 6 6 4 3 6 7 9 10 9 10 10 7 7 6 4 4 3 6 6 7 7 10 5 8 10 7 6 4 4 3 3 3 3 3 4 4 5 7 8 9 8 10 10
4 4 4 3 4 4 4 5 5 5 5 4 6 7 8 8 12 12 12 10 9 7 6 5 6 4 4 4 6 7 9 9 5 8 10 9 6 5 4 3 3 3 3 3 3 4 5 6 8 9 8 9 9 9
4 4 4 3 3 3 4 4 5 5 6 7 9 13 10 11 10 9 8 7 5 4 5 5 6 6 4 7 6 10 7 7 10 11 10 8 6 6 4 3 3 4 3 4 4 5 7 9 9 8 8 9 9 9
4 4 4 3 3 3 3 4 4 4 6 8 9 12 10 7 6 5 4 5 4 4 4 5 5 5 6 8 7 8 10 12 10 11 9 7 5 5 4 3 3 3 4 4 5 7 8 9 9 8 9 8 8 8
4 4 4 3 3 3 4 4 4 4 6 8 8 9 7 7 7 6 6 6 4 4 4 4 6 8 8 8 8 10 10 11 11 8 6 5 5 5 4 3 3 3 4 5 6 8 8 9 8 9 9 9 8 8
4 4 3 2 2 2 2 3 4 6 7 8 8 6 7 7 7 6 5 4 3 4 7 6 9 10 6 9 9 7 11 9 7 6 4 5 4 4 3 3 3 4 4 5 7 8 8 7 8 9 10 9 8 8
3 1 1 2 2 3 3 3 5 6 9 7 8 7 6 5 5 5 4 3 3 4 5 7 5 8 9 10 9 6 6 5 4 4 4 4 3 3 3 3 3 4 5 6 7 8 7 8 9 10 9 9 9 8
2 1 2 2 2 4 5 5 4 8 7 6 5 4 4 4 3 3 3 2 2 2 4 5 7 8 7 6 6 5 5 4 5 4 4 3 2 3 2 2 2 4 5 7 8 8 8 8 9 9 9 9 10 9
1 1 1 1 1 4 6 5 3 6 7 5 4 5 4 4 3 3 3 3 3 4 5 6 6 5 5 4 4 3 3 3 3 5 4 3 2 2 3 3 3 4 6 7 8 9 7 9 9 8 9 9 9 10
1 1 1 1 2 3 4 5 6 5 5 6 4 4 5 4 4 4 4 3 5 6 6 5 4 3 2 2 2 2 3 2 3 4 4 4 2 2 2 2 3 4 7 8 8 8 9 9 9 9 8 9 9 9
1 2 1 2 4 4 5 3 5 4 5 5 6 5 6 7 6 5 4 5 5 5 4 4 3 3 3 3 2 2 2 3 2 3 5 4 4 3 4 3 4 6 7 8 8 8 9 8 8 8 9 9 9 9
1 1 2 3 6 6 8 3 7 6 8 6 5 7 6 6 4 2 6 5 5 3 3 3 2 2 2 2 2 2 2 3 3 3 3 3 2 2 3 3 5 6 8 8 7 8 8 10 9 9 9 9 9 10
3 4 6 6 6 9 5 7 6 7 7 7 7 8 7 6 5 7 9 6 4 2 3 2 3 4 3 3 4 3 3 2 3 2 1 2 3 3 3 5 5 6 7 7 7 7 8 9 10 9 9 9 9 9
7 8 7 10 6 8 8 8 7 7 9 7 8 8 8 6 9 9 9 7 5 4 3 2 3 3 4 4 3 3 1 2 2 3 2 2 2 4 5 6 6 7 7 8 8 7 8 8 8 9 9 9 9 9
10 7 9 8 7 8 7 9 9 9 8 8 8 7 7 8 10 11 9 6 5 4 4 4 4 4 4 3 3 3 3 1 1 3 2 2 2 5 7 8 9 9 7 6 7 8 8 8 9 9 9 9 12 8
11 9 6 4 5 5 7 6 6 7 8 9 9 8 9 12 12 8 5 4 4 3 2 2 2 3 3 3 2 1 1 1 2 3 3 3 4 4 6 8 8 8 6 7 7 8 8 8 9 9 8 8 8 8
7 6 8 6 6 5 8 8 8 8 9 6 7 10 11 10 10 5 5 3 2 2 2 1 1 2 2 2 2 2 2 3 3 4 5 5 5 5 6 6 6 10 6 6 6 7 7 8 8 8 8 8 8 8
7 6 6 8 8 7 7 8 8 6 6 7 9 10 9 7 6 6 5 4 4 3 3 3 2 2 2 2 2 2 3 4 6 8 9 9 9 8 6 6 6 7 7 8 12 8 7 7 7 7 7 6 7 7
8 6 8 8 9 9 6 5 6 7 7 7 8 8 9 8 6 5 3 2 3 3 3 3 2 3 3 4 5 5 5 5 6 7 9 9 9 7 6 7 6 6 6 7 8 9 12 8 9 7 7 7 7 8
6 7 8 8 8 7 7 7 7 7 7 8 9 10 10 9 6 4 5 3 3 2 2 3 3 4 4 5 5 6 7 6 6 6 6 6 6 6 6 6 6 5 6 7 7 7 7 7 6 7 7 7 8 9
7 9 9 10 9 8 9 9 9 9 9 9 9 8 8 8 9 6 4 3 3 4 6 4 4 4 4 4 5 5 9 6 6 6 6 6 6 6 6 6 5 5 5 6 7 6 6 6 6 7 7 7 7 7
8 8 9 9 9 9 7 8 8 9 8 9 8 6 7 7 8 5 2 1 2 2 4 4 3 2 2 3 4 5 7 7 10 11 11 11 11 9 6 6 5 5 5 6 7 7 7 6 6 6 6 6 7 7